SL-12 R/B(AUX MOTOR), 4790

Orbit data source: Space-Track

SL-12 R/B(AUX MOTOR), 4790 is space debris in LEO originally from a launch on Wed, 02 Dec 1970 UTC launched from the Tyuratam Missile And Space Complex (TTMTR). Debris objects in space refer to the collection of defunct objects orbiting the Earth. Examples of debris include non-operational satellites, rocket bodies, and fragments generated from explosions, collisions, or faulty payload assembly.

Loading next visibility...
Identifier
4790, 1970-103C
Orbit
LEO
Country
Flag of CISCIS
Related business
Manufacturer
TsKBEM
Mission
Spacecraft
Bus & Motor
SOZ, Unknown motor
Mass
Wet unknown, ~60 kg dry
Launch date (UTC)
1970-12-02 (55 years ago)
Launch vehicle
Unknown
Launch site
Tyuratam Missile And Space Complex (TTMTR)
Object type
Payload
Rocket body
Debris
Shape & HBR
Unknown
Radar Cross Section
Medium (>0.1 m² and <1 m²)

Expand to show TLE details & history
Last TLE update: 3 days ago

TLE from 3 days ago
0 SL-12 R/B(AUX MOTOR)
1 04790U 70103C   25302.77587805 -.00000163  00000-0 -69353-2 0  9990
2 04790  51.5957 318.7820 1788466 193.0219 161.7692  9.05046449815230
Epoch: 2025-10-29T18:37Z
TLE epoch observation values (Epoch: 2025-10-29T18:37:15.863Z)
Latitude
-0.00001°
Longitude
1.12173°
Altitude
5,025.087 km
Speed
5.38 km/s
True Right ascension
21h 15m 07s
True Declination
0° 00' 00"
Sunlit
Object was in daylight at epoch
Visualization orbit readout
Latitude
Unknown
Longitude
Unknown
Altitude
Unknown
Speed
Unknown
Apparent Right ascension
Unknown
Apparent Declination
Unknown
Sunlit
N/A
Visualization observer readout
Local Sidereal Time
17:54:32
Azimuth
Unknown
Elevation
Unknown
Doppler factor
Unknown
Orbital elements
Apogee altitude
5,088.311 km
Perigee altitude
1,609.088 km
Semi-major axis
9,726.836 km
Eccentricity
0.17885
Inclination
51.5957°
RAAN
318.782°
Arg. of periapsis
193.0219°
True anomaly
167.04508°
Mean anomaly
161.7692°
Eccentric anomaly
164.50651°
Mean motion
2.26249 °/min
Orbital period
159.12 mins
BSTAR
-0.0069353
Loading maneuver chart data...
Computing Atmospheric mass density...
Loading historical data...
Loading historical data...
Loading historical data...
Loading historical data...
Loading historical data...
Loading historical data...
Loading historical data...

Documentation

Showing up to 5 results
|